Time,TemperatureF,DewpointF,PressureIn,WindDirection,WindDirectionDegrees,WindSpeedMPH,WindSpeedGustMPH,Humidity,HourlyPrecipIn,Conditions,Clouds,dailyrainin,SoftwareType,DateUTC
2013-04-06 00:02:00,44.6,17.6,29.91,North,357,13.8,-999.9,34,-99.99,,,-99.99,,2013-04-06 04:02:00,
2013-04-06 00:04:00,44.6,17.6,29.91,North,357,13.8,-999.9,34,-99.99,,,-99.99,,2013-04-06 04:04:00,
2013-04-06 00:08:00,44.6,17.6,29.91,North,357,13.8,-999.9,34,-99.99,,,-99.99,,2013-04-06 04:08:00,
2013-04-06 00:14:00,44.6,17.6,29.91,North,357,13.8,-999.9,34,-99.99,,,-99.99,,2013-04-06 04:14:00,
2013-04-06 00:20:00,44.6,17.6,29.91,North,357,13.8,-999.9,34,-99.99,,,-99.99,,2013-04-06 04:20:00,
2013-04-06 00:26:00,42.8,15.8,29.91,NNW,343,25.3,-999.9,34,-99.99,,,-99.99,,2013-04-06 04:26:00,
2013-04-06 00:32:00,42.8,17.6,29.92,NNW,340,12.7,-999.9,36,-99.99,,,-99.99,,2013-04-06 04:32:00,
2013-04-06 00:38:00,42.8,17.6,29.92,NNW,340,12.7,-999.9,36,-99.99,,,-99.99,,2013-04-06 04:38:00,
2013-04-06 00:44:00,42.8,17.6,29.92,NNW,344,28.8,-999.9,36,-99.99,,,-99.99,,2013-04-06 04:44:00,
2013-04-06 00:50:00,42.8,17.6,29.92,NNW,344,28.8,-999.9,36,-99.99,,,-99.99,,2013-04-06 04:50:00,
2013-04-06 00:56:00,42.8,17.6,29.93,NW,320,19.6,-999.9,36,-99.99,,,-99.99,,2013-04-06 04:56:00,
2013-04-06 01:04:00,42.8,19.4,29.93,NW,324,23.0,-999.9,39,-99.99,,,-99.99,,2013-04-06 05:04:00,
2013-04-06 01:10:00,42.8,19.4,29.93,NW,324,23.0,-999.9,39,-99.99,,,-99.99,,2013-04-06 05:10:00,
2013-04-06 01:34:00,42.8,19.4,29.94,NNW,332,23.0,-999.9,39,-99.99,,,-99.99,,2013-04-06 05:34:00,
2013-04-06 01:40:00,42.8,19.4,29.94,NNW,332,23.0,-999.9,39,-99.99,,,-99.99,,2013-04-06 05:40:00,
2013-04-06 01:46:00,41.0,19.4,29.95,NNW,331,20.7,-999.9,42,-99.99,,,-99.99,,2013-04-06 05:46:00,
2013-04-06 02:12:00,41.0,14.0,29.96,NNW,336,25.3,-999.9,33,-99.99,,,-99.99,,2013-04-06 06:12:00,
2013-04-06 02:18:00,41.0,14.0,29.96,NNW,336,25.3,-999.9,33,-99.99,,,-99.99,,2013-04-06 06:18:00,
2013-04-06 02:24:00,41.0,14.0,29.96,NNW,334,23.0,-999.9,33,-99.99,,,-99.99,,2013-04-06 06:24:00,
2013-04-06 02:30:00,41.0,14.0,29.96,NNW,334,23.0,-999.9,33,-99.99,,,-99.99,,2013-04-06 06:30:00,
2013-04-06 02:36:00,41.0,15.8,29.97,NNW,331,24.2,-999.9,36,-99.99,,,-99.99,,2013-04-06 06:36:00,
2013-04-06 02:42:00,39.2,14.0,29.97,NNW,329,23.0,-999.9,36,-99.99,,,-99.99,,2013-04-06 06:42:00,
2013-04-06 02:48:00,39.2,14.0,29.97,NNW,329,23.0,-999.9,36,-99.99,,,-99.99,,2013-04-06 06:48:00,
2013-04-06 02:54:00,39.2,14.0,29.98,NW,319,23.0,-999.9,36,-99.99,,,-99.99,,2013-04-06 06:54:00,
2013-04-06 03:00:00,39.2,14.0,29.98,NW,319,23.0,-999.9,36,-99.99,,,-99.99,,2013-04-06 07:00:00,
2013-04-06 03:06:00,39.2,12.2,29.98,NNW,328,28.8,-999.9,33,-99.99,,,-99.99,,2013-04-06 07:06:00,
2013-04-06 03:12:00,39.2,14.0,29.98,NNW,330,21.9,-999.9,36,-99.99,,,-99.99,,2013-04-06 07:12:00,
2013-04-06 03:18:00,39.2,14.0,29.98,NNW,330,21.9,-999.9,36,-99.99,,,-99.99,,2013-04-06 07:18:00,
2013-04-06 03:24:00,39.2,14.0,29.99,NW,310,18.4,-999.9,36,-99.99,,,-99.99,,2013-04-06 07:24:00,
2013-04-06 03:30:00,39.2,14.0,29.99,NW,310,18.4,-999.9,36,-99.99,,,-99.99,,2013-04-06 07:30:00,
2013-04-06 03:36:00,39.2,14.0,29.99,NW,310,19.6,-999.9,36,-99.99,,,-99.99,,2013-04-06 07:36:00,
2013-04-06 03:44:00,39.2,14.0,30.00,NW,323,24.2,-999.9,36,-99.99,,,-99.99,,2013-04-06 07:44:00,
2013-04-06 03:50:00,39.2,14.0,30.00,NW,323,24.2,-999.9,36,-99.99,,,-99.99,,2013-04-06 07:50:00,
2013-04-06 03:56:00,39.2,14.0,30.00,NNW,340,18.4,-999.9,36,-99.99,,,-99.99,,2013-04-06 07:56:00,
2013-04-06 04:02:00,39.2,14.0,30.01,NW,324,19.6,-999.9,36,-99.99,,,-99.99,,2013-04-06 08:02:00,
2013-04-06 04:08:00,39.2,14.0,30.01,NW,324,19.6,-999.9,36,-99.99,,,-99.99,,2013-04-06 08:08:00,
2013-04-06 04:14:00,39.2,15.8,30.01,NNW,330,13.8,-999.9,39,-99.99,,,-99.99,,2013-04-06 08:14:00,
2013-04-06 04:20:00,39.2,15.8,30.01,NNW,330,13.8,-999.9,39,-99.99,,,-99.99,,2013-04-06 08:20:00,
2013-04-06 04:26:00,39.2,15.8,30.02,NW,318,18.4,-999.9,39,-99.99,,,-99.99,,2013-04-06 08:26:00,
2013-04-06 04:34:00,39.2,15.8,30.02,NNW,329,24.2,-999.9,39,-99.99,,,-99.99,,2013-04-06 08:34:00,
2013-04-06 04:40:00,39.2,15.8,30.02,NNW,329,24.2,-999.9,39,-99.99,,,-99.99,,2013-04-06 08:40:00,
2013-04-06 04:46:00,37.4,14.0,30.03,NW,324,18.4,-999.9,38,-99.99,,,-99.99,,2013-04-06 08:46:00,
2013-04-06 04:54:00,37.4,14.0,30.03,NNW,332,25.3,-999.9,38,-99.99,,,-99.99,,2013-04-06 08:54:00,
2013-04-06 05:00:00,37.4,14.0,30.03,NNW,332,25.3,-999.9,38,-99.99,,,-99.99,,2013-04-06 09:00:00,
2013-04-06 05:06:00,37.4,15.8,30.04,NW,308,19.6,-999.9,41,-99.99,,,-99.99,,2013-04-06 09:06:00,
2013-04-06 05:12:00,37.4,15.8,30.05,NW,323,13.8,-999.9,41,-99.99,,,-99.99,,2013-04-06 09:12:00,
2013-04-06 05:18:00,37.4,15.8,30.05,NW,323,13.8,-999.9,41,-99.99,,,-99.99,,2013-04-06 09:18:00,
2013-04-06 05:24:00,37.4,15.8,30.05,NNW,334,12.7,-999.9,41,-99.99,,,-99.99,,2013-04-06 09:24:00,
2013-04-06 05:30:00,37.4,15.8,30.05,NNW,334,12.7,-999.9,41,-99.99,,,-99.99,,2013-04-06 09:30:00,
2013-04-06 05:36:00,37.4,15.8,30.06,NNW,332,20.7,-999.9,41,-99.99,,,-99.99,,2013-04-06 09:36:00,
2013-04-06 05:44:00,37.4,17.6,30.06,NNW,332,11.5,-999.9,45,-99.99,,,-99.99,,2013-04-06 09:44:00,
2013-04-06 05:50:00,37.4,17.6,30.06,NNW,332,11.5,-999.9,45,-99.99,,,-99.99,,2013-04-06 09:50:00,
2013-04-06 05:56:00,37.4,17.6,30.07,NW,308,11.5,-999.9,45,-99.99,,,-99.99,,2013-04-06 09:56:00,
2013-04-06 06:04:00,37.4,17.6,30.07,NNW,332,16.1,-999.9,45,-99.99,,,-99.99,,2013-04-06 10:04:00,
2013-04-06 06:10:00,37.4,17.6,30.07,NNW,332,16.1,-999.9,45,-99.99,,,-99.99,,2013-04-06 10:10:00,
2013-04-06 06:16:00,37.4,17.6,30.08,NW,319,13.8,-999.9,45,-99.99,,,-99.99,,2013-04-06 10:16:00,
2013-04-06 06:24:00,37.4,17.6,30.09,NW,324,11.5,-999.9,45,-99.99,,,-99.99,,2013-04-06 10:24:00,
2013-04-06 06:30:00,37.4,17.6,30.09,NW,324,11.5,-999.9,45,-99.99,,,-99.99,,2013-04-06 10:30:00,
2013-04-06 06:36:00,37.4,19.4,30.09,NNW,339,11.5,-999.9,48,-99.99,,,-99.99,,2013-04-06 10:36:00,
2013-04-06 06:46:00,37.4,17.6,30.10,NNW,340,18.4,-999.9,45,-99.99,,,-99.99,,2013-04-06 10:46:00,
2013-04-06 06:54:00,37.4,19.4,30.11,North,350,15.0,-999.9,48,-99.99,,,-99.99,,2013-04-06 10:54:00,
2013-04-06 07:00:00,37.4,19.4,30.11,NNW,338,12.7,-999.9,48,-99.99,,,-99.99,,2013-04-06 11:00:00,
2013-04-06 07:06:00,37.4,19.4,30.11,NNW,338,12.7,-999.9,48,-99.99,,,-99.99,,2013-04-06 11:06:00,
2013-04-06 07:14:00,37.4,19.4,30.12,NNW,339,12.7,-999.9,48,-99.99,,,-99.99,,2013-04-06 11:14:00,
2013-04-06 07:20:00,37.4,19.4,30.12,NNW,339,12.7,-999.9,48,-99.99,,,-99.99,,2013-04-06 11:20:00,
2013-04-06 07:26:00,37.4,19.4,30.13,North,353,12.7,-999.9,48,-99.99,,,-99.99,,2013-04-06 11:26:00,
2013-04-06 07:34:00,37.4,19.4,30.13,North,6,10.4,-999.9,48,-99.99,,,-99.99,,2013-04-06 11:34:00,
2013-04-06 07:44:00,37.4,17.6,30.14,NNE,17,5.8,-999.9,45,-99.99,,,-99.99,,2013-04-06 11:44:00,
2013-04-06 07:46:00,37.4,17.6,30.14,NNE,17,5.8,-999.9,45,-99.99,,,-99.99,,2013-04-06 11:46:00,
2013-04-06 07:54:00,39.2,19.4,30.14,NNW,334,11.5,-999.9,45,-99.99,,,-99.99,,2013-04-06 11:54:00,
2013-04-06 08:00:00,39.2,19.4,30.14,NNW,334,11.5,-999.9,45,-99.99,,,-99.99,,2013-04-06 12:00:00,
2013-04-06 08:06:00,39.2,19.4,30.14,North,352,5.8,-999.9,45,-99.99,,,-99.99,,2013-04-06 12:06:00,
2013-04-06 08:14:00,39.2,19.4,30.14,NE,40,4.6,-999.9,45,-99.99,,,-99.99,,2013-04-06 12:14:00,
2013-04-06 08:24:00,39.2,19.4,30.15,NNE,12,11.5,-999.9,45,-99.99,,,-99.99,,2013-04-06 12:24:00,
2013-04-06 08:34:00,39.2,17.6,30.15,NNW,346,10.4,-999.9,42,-99.99,,,-99.99,,2013-04-06 12:34:00,
2013-04-06 08:40:00,39.2,14.0,30.16,NNE,25,11.5,-999.9,36,-99.99,,,-99.99,,2013-04-06 12:40:00,
2013-04-06 08:46:00,39.2,14.0,30.16,NNE,25,11.5,-999.9,36,-99.99,,,-99.99,,2013-04-06 12:46:00,
2013-04-06 08:56:00,39.2,12.2,30.16,NNE,16,12.7,-999.9,33,-99.99,,,-99.99,,2013-04-06 12:56:00,
2013-04-06 09:04:00,39.2,10.4,30.16,NNW,346,17.3,-999.9,31,-99.99,,,-99.99,,2013-04-06 13:04:00,
2013-04-06 09:14:00,39.2,10.4,30.16,NNE,14,11.5,-999.9,31,-99.99,,,-99.99,,2013-04-06 13:14:00,
2013-04-06 09:20:00,39.2,10.4,30.16,NNE,14,11.5,-999.9,31,-99.99,,,-99.99,,2013-04-06 13:20:00,
2013-04-06 09:26:00,39.2,10.4,30.17,North,11,17.3,-999.9,31,-99.99,,,-99.99,,2013-04-06 13:26:00,
2013-04-06 09:34:00,39.2,8.6,30.17,NNW,336,27.6,-999.9,28,-99.99,,,-99.99,,2013-04-06 13:34:00,
2013-04-06 09:40:00,39.2,8.6,30.17,NNW,336,27.6,-999.9,28,-99.99,,,-99.99,,2013-04-06 13:40:00,
2013-04-06 09:46:00,39.2,8.6,30.18,NNW,333,24.2,-999.9,28,-99.99,,,-99.99,,2013-04-06 13:46:00,
2013-04-06 09:54:00,39.2,10.4,30.18,NNW,333,13.8,-999.9,31,-99.99,,,-99.99,,2013-04-06 13:54:00,
2013-04-06 10:00:00,39.2,6.8,30.19,NNW,345,23.0,-999.9,26,-99.99,,,-99.99,,2013-04-06 14:00:00,
2013-04-06 10:06:00,39.2,6.8,30.19,NNW,345,23.0,-999.9,26,-99.99,,,-99.99,,2013-04-06 14:06:00,
2013-04-06 10:14:00,39.2,8.6,30.18,NNW,328,23.0,-999.9,28,-99.99,,,-99.99,,2013-04-06 14:14:00,
2013-04-06 10:20:00,39.2,8.6,30.18,NNW,328,23.0,-999.9,28,-99.99,,,-99.99,,2013-04-06 14:20:00,
2013-04-06 10:26:00,39.2,8.6,30.19,NNW,338,19.6,-999.9,28,-99.99,,,-99.99,,2013-04-06 14:26:00,
2013-04-06 10:32:00,41.0,10.4,30.19,North,1,12.7,-999.9,29,-99.99,,,-99.99,,2013-04-06 14:32:00,
2013-04-06 10:38:00,41.0,10.4,30.19,North,1,12.7,-999.9,29,-99.99,,,-99.99,,2013-04-06 14:38:00,
2013-04-06 10:46:00,39.2,8.6,30.19,NNW,341,12.7,-999.9,28,-99.99,,,-99.99,,2013-04-06 14:46:00,
2013-04-06 10:54:00,41.0,6.8,30.19,North,349,17.3,-999.9,24,-99.99,,,-99.99,,2013-04-06 14:54:00,
2013-04-06 11:02:00,41.0,6.8,30.19,NNW,331,19.6,-999.9,24,-99.99,,,-99.99,,2013-04-06 15:02:00,
2013-04-06 11:08:00,41.0,6.8,30.19,NNW,331,19.6,-999.9,24,-99.99,,,-99.99,,2013-04-06 15:08:00,
2013-04-06 11:14:00,41.0,6.8,30.19,NNW,337,15.0,-999.9,24,-99.99,,,-99.99,,2013-04-06 15:14:00,
2013-04-06 11:20:00,41.0,6.8,30.19,NNW,337,15.0,-999.9,24,-99.99,,,-99.99,,2013-04-06 15:20:00,
2013-04-06 11:26:00,42.8,6.8,30.19,NNW,337,12.7,-999.9,23,-99.99,,,-99.99,,2013-04-06 15:26:00,
2013-04-06 11:32:00,42.8,6.8,30.20,NNW,334,13.8,-999.9,23,-99.99,,,-99.99,,2013-04-06 15:32:00,
2013-04-06 11:38:00,42.8,6.8,30.20,NNW,334,13.8,-999.9,23,-99.99,,,-99.99,,2013-04-06 15:38:00,
2013-04-06 11:44:00,42.8,5.0,30.19,NNW,332,19.6,-999.9,21,-99.99,,,-99.99,,2013-04-06 15:44:00,
2013-04-06 11:50:00,42.8,5.0,30.19,NNW,332,19.6,-999.9,21,-99.99,,,-99.99,,2013-04-06 15:50:00,
2013-04-06 11:56:00,42.8,5.0,30.19,North,352,11.5,-999.9,21,-99.99,,,-99.99,,2013-04-06 15:56:00,
2013-04-06 12:06:00,44.6,3.2,30.19,NNE,30,11.5,-999.9,18,-99.99,,,-99.99,,2013-04-06 16:06:00,
2013-04-06 12:12:00,42.8,5.0,30.19,NNW,331,12.7,-999.9,21,-99.99,,,-99.99,,2013-04-06 16:12:00,
2013-04-06 12:18:00,42.8,5.0,30.19,NNW,331,12.7,-999.9,21,-99.99,,,-99.99,,2013-04-06 16:18:00,
2013-04-06 12:24:00,44.6,3.2,30.19,NNW,327,16.1,-999.9,18,-99.99,,,-99.99,,2013-04-06 16:24:00,
2013-04-06 12:30:00,44.6,3.2,30.19,NNW,327,16.1,-999.9,18,-99.99,,,-99.99,,2013-04-06 16:30:00,
2013-04-06 12:36:00,44.6,5.0,30.19,NNW,339,17.3,-999.9,20,-99.99,,,-99.99,,2013-04-06 16:36:00,
2013-04-06 12:44:00,44.6,3.2,30.19,NNE,15,4.6,-999.9,18,-99.99,,,-99.99,,2013-04-06 16:44:00,
2013-04-06 12:50:00,46.4,5.0,30.19,North,358,13.8,-999.9,18,-99.99,,,-99.99,,2013-04-06 16:50:00,
2013-04-06 12:56:00,46.4,5.0,30.19,North,358,13.8,-999.9,18,-99.99,,,-99.99,,2013-04-06 16:56:00,
2013-04-06 13:02:00,46.4,5.0,30.19,NNW,347,12.7,-999.9,18,-99.99,,,-99.99,,2013-04-06 17:02:00,
2013-04-06 13:08:00,46.4,5.0,30.19,NNW,347,12.7,-999.9,18,-99.99,,,-99.99,,2013-04-06 17:08:00,
2013-04-06 13:14:00,44.6,3.2,30.18,West,270,8.1,-999.9,18,-99.99,,,-99.99,,2013-04-06 17:14:00,
2013-04-06 13:20:00,44.6,3.2,30.18,West,270,8.1,-999.9,18,-99.99,,,-99.99,,2013-04-06 17:20:00,
2013-04-06 13:26:00,46.4,3.2,30.18,NNE,27,6.9,-999.9,17,-99.99,,,-99.99,,2013-04-06 17:26:00,
2013-04-06 13:34:00,48.2,6.8,30.18,WNW,300,6.9,-999.9,19,-99.99,,,-99.99,,2013-04-06 17:34:00,
2013-04-06 13:40:00,48.2,6.8,30.18,WNW,300,6.9,-999.9,19,-99.99,,,-99.99,,2013-04-06 17:40:00,
2013-04-06 13:46:00,46.4,6.8,30.18,NNW,333,13.8,-999.9,20,-99.99,,,-99.99,,2013-04-06 17:46:00,
2013-04-06 13:54:00,46.4,6.8,30.17,North,358,10.4,-999.9,20,-99.99,,,-99.99,,2013-04-06 17:54:00,
2013-04-06 14:00:00,46.4,6.8,30.17,North,358,10.4,-999.9,20,-99.99,,,-99.99,,2013-04-06 18:00:00,
2013-04-06 14:06:00,48.2,8.6,30.18,SW,214,10.4,-999.9,20,-99.99,,,-99.99,,2013-04-06 18:06:00,
2013-04-06 14:14:00,48.2,8.6,30.17,South,179,11.5,-999.9,20,-99.99,,,-99.99,,2013-04-06 18:14:00,
2013-04-06 14:20:00,48.2,8.6,30.17,South,179,11.5,-999.9,20,-99.99,,,-99.99,,2013-04-06 18:20:00,
2013-04-06 14:26:00,48.2,8.6,30.17,SW,223,10.4,-999.9,20,-99.99,,,-99.99,,2013-04-06 18:26:00,
2013-04-06 14:34:00,50.0,6.8,30.17,South,173,13.8,-999.9,17,-99.99,,,-99.99,,2013-04-06 18:34:00,
2013-04-06 14:40:00,50.0,6.8,30.17,South,173,13.8,-999.9,17,-99.99,,,-99.99,,2013-04-06 18:40:00,
2013-04-06 14:46:00,50.0,8.6,30.16,South,180,6.9,-999.9,19,-99.99,,,-99.99,,2013-04-06 18:46:00,
2013-04-06 14:52:00,50.0,6.8,30.16,South,169,4.6,-999.9,17,-99.99,,,-99.99,,2013-04-06 18:52:00,
2013-04-06 14:58:00,50.0,6.8,30.16,South,169,4.6,-999.9,17,-99.99,,,-99.99,,2013-04-06 18:58:00,
2013-04-06 15:04:00,50.0,8.6,30.16,SE,132,5.8,-999.9,19,-99.99,,,-99.99,,2013-04-06 19:04:00,
2013-04-06 15:10:00,50.0,8.6,30.16,SE,132,5.8,-999.9,19,-99.99,,,-99.99,,2013-04-06 19:10:00,
2013-04-06 15:16:00,50.0,8.6,30.16,NE,41,4.6,-999.9,19,-99.99,,,-99.99,,2013-04-06 19:16:00,
2013-04-06 15:22:00,50.0,6.8,30.16,WSW,248,1.2,-999.9,17,-99.99,,,-99.99,,2013-04-06 19:22:00,
2013-04-06 15:28:00,50.0,6.8,30.16,WSW,248,1.2,-999.9,17,-99.99,,,-99.99,,2013-04-06 19:28:00,
2013-04-06 15:34:00,51.8,6.8,30.15,North,0,0.0,-999.9,16,-99.99,,,-99.99,,2013-04-06 19:34:00,
2013-04-06 15:40:00,51.8,6.8,30.15,North,0,0.0,-999.9,16,-99.99,,,-99.99,,2013-04-06 19:40:00,
2013-04-06 15:46:00,50.0,6.8,30.15,ESE,122,6.9,-999.9,17,-99.99,,,-99.99,,2013-04-06 19:46:00,
2013-04-06 15:54:00,51.8,5.0,30.14,SSE,168,4.6,-999.9,15,-99.99,,,-99.99,,2013-04-06 19:54:00,
2013-04-06 16:00:00,51.8,5.0,30.14,SSE,168,4.6,-999.9,15,-99.99,,,-99.99,,2013-04-06 20:00:00,
2013-04-06 16:06:00,51.8,5.0,30.14,South,177,3.5,-999.9,15,-99.99,,,-99.99,,2013-04-06 20:06:00,
2013-04-06 16:12:00,53.6,5.0,30.14,SW,228,6.9,-999.9,14,-99.99,,,-99.99,,2013-04-06 20:12:00,
2013-04-06 16:18:00,53.6,5.0,30.14,SW,228,6.9,-999.9,14,-99.99,,,-99.99,,2013-04-06 20:18:00,
2013-04-06 16:24:00,51.8,5.0,30.14,NE,35,10.4,-999.9,15,-99.99,,,-99.99,,2013-04-06 20:24:00,
2013-04-06 16:30:00,51.8,5.0,30.14,NE,35,10.4,-999.9,15,-99.99,,,-99.99,,2013-04-06 20:30:00,
2013-04-06 16:36:00,51.8,5.0,30.14,South,176,8.1,-999.9,15,-99.99,,,-99.99,,2013-04-06 20:36:00,
2013-04-06 16:42:00,51.8,5.0,30.14,SSW,212,6.9,-999.9,15,-99.99,,,-99.99,,2013-04-06 20:42:00,
2013-04-06 16:48:00,51.8,5.0,30.14,SSW,212,6.9,-999.9,15,-99.99,,,-99.99,,2013-04-06 20:48:00,
2013-04-06 16:54:00,51.8,6.8,30.15,SW,218,10.4,-999.9,16,-99.99,,,-99.99,,2013-04-06 20:54:00,
2013-04-06 17:00:00,51.8,6.8,30.15,SW,218,10.4,-999.9,16,-99.99,,,-99.99,,2013-04-06 21:00:00,
2013-04-06 17:06:00,53.6,5.0,30.15,SSW,209,6.9,-999.9,14,-99.99,,,-99.99,,2013-04-06 21:06:00,
2013-04-06 17:12:00,53.6,6.8,30.15,SSW,209,12.7,-999.9,15,-99.99,,,-99.99,,2013-04-06 21:12:00,
2013-04-06 17:18:00,53.6,6.8,30.15,SSW,209,12.7,-999.9,15,-99.99,,,-99.99,,2013-04-06 21:18:00,
2013-04-06 17:24:00,51.8,6.8,30.16,SW,228,11.5,-999.9,16,-99.99,,,-99.99,,2013-04-06 21:24:00,
2013-04-06 17:30:00,51.8,6.8,30.16,SW,228,11.5,-999.9,16,-99.99,,,-99.99,,2013-04-06 21:30:00,
2013-04-06 17:36:00,50.0,19.4,30.16,South,182,19.6,-999.9,30,-99.99,,,-99.99,,2013-04-06 21:36:00,
2013-04-06 17:44:00,48.2,19.4,30.16,South,182,16.1,-999.9,32,-99.99,,,-99.99,,2013-04-06 21:44:00,
2013-04-06 17:50:00,48.2,19.4,30.16,South,182,16.1,-999.9,32,-99.99,,,-99.99,,2013-04-06 21:50:00,
2013-04-06 17:56:00,50.0,21.2,30.17,South,180,16.1,-999.9,32,-99.99,,,-99.99,,2013-04-06 21:56:00,
2013-04-06 18:02:00,50.0,21.2,30.17,South,179,17.3,-999.9,32,-99.99,,,-99.99,,2013-04-06 22:02:00,
2013-04-06 18:08:00,50.0,21.2,30.17,South,179,17.3,-999.9,32,-99.99,,,-99.99,,2013-04-06 22:08:00,
2013-04-06 18:14:00,50.0,19.4,30.18,South,191,6.9,-999.9,30,-99.99,,,-99.99,,2013-04-06 22:14:00,
2013-04-06 18:20:00,50.0,19.4,30.18,South,191,6.9,-999.9,30,-99.99,,,-99.99,,2013-04-06 22:20:00,
2013-04-06 18:26:00,48.2,19.4,30.18,South,185,20.7,-999.9,32,-99.99,,,-99.99,,2013-04-06 22:26:00,
2013-04-06 18:36:00,46.4,23.0,30.19,South,173,16.1,-999.9,40,-99.99,,,-99.99,,2013-04-06 22:36:00,
2013-04-06 18:42:00,46.4,23.0,30.19,South,179,11.5,-999.9,40,-99.99,,,-99.99,,2013-04-06 22:42:00,
2013-04-06 18:48:00,46.4,23.0,30.19,South,179,11.5,-999.9,40,-99.99,,,-99.99,,2013-04-06 22:48:00,
2013-04-06 18:54:00,46.4,24.8,30.19,South,185,11.5,-999.9,43,-99.99,,,-99.99,,2013-04-06 22:54:00,
2013-04-06 19:00:00,46.4,24.8,30.19,South,185,11.5,-999.9,43,-99.99,,,-99.99,,2013-04-06 23:00:00,
2013-04-06 19:06:00,46.4,26.6,30.20,South,181,11.5,-999.9,46,-99.99,,,-99.99,,2013-04-06 23:06:00,
2013-04-06 19:12:00,46.4,26.6,30.20,South,173,2.3,-999.9,46,-99.99,,,-99.99,,2013-04-06 23:12:00,
2013-04-06 19:18:00,46.4,26.6,30.20,South,173,2.3,-999.9,46,-99.99,,,-99.99,,2013-04-06 23:18:00,
2013-04-06 19:24:00,44.6,24.8,30.20,SSW,201,11.5,-999.9,46,-99.99,,,-99.99,,2013-04-06 23:24:00,
2013-04-06 19:30:00,44.6,24.8,30.21,SSW,207,8.1,-999.9,46,-99.99,,,-99.99,,2013-04-06 23:30:00,
2013-04-06 19:36:00,44.6,24.8,30.21,SSW,207,8.1,-999.9,46,-99.99,,,-99.99,,2013-04-06 23:36:00,
2013-04-06 19:44:00,44.6,24.8,30.21,SSW,205,8.1,-999.9,46,-99.99,,,-99.99,,2013-04-06 23:44:00,
2013-04-06 19:50:00,44.6,24.8,30.21,SSW,205,8.1,-999.9,46,-99.99,,,-99.99,,2013-04-06 23:50:00,
2013-04-06 19:56:00,44.6,28.4,30.21,South,184,8.1,-999.9,53,-99.99,,,-99.99,,2013-04-06 23:56:00,
2013-04-06 20:02:00,42.8,28.4,30.22,South,191,3.5,-999.9,57,-99.99,,,-99.99,,2013-04-07 00:02:00,
2013-04-06 20:08:00,42.8,28.4,30.22,South,191,3.5,-999.9,57,-99.99,,,-99.99,,2013-04-07 00:08:00,
2013-04-06 20:14:00,42.8,26.6,30.22,SSW,193,8.1,-999.9,53,-99.99,,,-99.99,,2013-04-07 00:14:00,
2013-04-06 20:20:00,42.8,26.6,30.22,SSW,193,8.1,-999.9,53,-99.99,,,-99.99,,2013-04-07 00:20:00,
2013-04-06 21:14:00,42.8,30.2,30.23,SSW,194,11.5,-999.9,61,-99.99,,,-99.99,,2013-04-07 01:14:00,
2013-04-06 21:20:00,42.8,30.2,30.23,SSW,194,11.5,-999.9,61,-99.99,,,-99.99,,2013-04-07 01:20:00,
2013-04-06 21:26:00,42.8,30.2,30.23,SSW,199,9.2,-999.9,61,-99.99,,,-99.99,,2013-04-07 01:26:00,
2013-04-06 21:34:00,42.8,30.2,30.24,South,186,9.2,-999.9,61,-99.99,,,-99.99,,2013-04-07 01:34:00,
2013-04-06 21:44:00,42.8,30.2,30.24,South,189,8.1,-999.9,61,-99.99,,,-99.99,,2013-04-07 01:44:00,
2013-04-06 21:50:00,42.8,30.2,30.24,South,189,8.1,-999.9,61,-99.99,,,-99.99,,2013-04-07 01:50:00,
2013-04-06 21:56:00,42.8,30.2,30.24,SSW,198,5.8,-999.9,61,-99.99,,,-99.99,,2013-04-07 01:56:00,
2013-04-06 22:02:00,42.8,30.2,30.23,South,186,12.7,-999.9,61,-99.99,,,-99.99,,2013-04-07 02:02:00,
2013-04-06 22:08:00,42.8,30.2,30.23,South,186,12.7,-999.9,61,-99.99,,,-99.99,,2013-04-07 02:08:00,
2013-04-06 22:16:00,42.8,30.2,30.23,South,181,10.4,-999.9,61,-99.99,,,-99.99,,2013-04-07 02:16:00,
2013-04-06 22:22:00,42.8,32.0,30.24,SSW,195,6.9,-999.9,66,-99.99,,,-99.99,,2013-04-07 02:22:00,
2013-04-06 22:28:00,42.8,32.0,30.24,SSW,195,6.9,-999.9,66,-99.99,,,-99.99,,2013-04-07 02:28:00,
2013-04-06 22:34:00,42.8,32.0,30.24,South,190,5.8,-999.9,66,-99.99,,,-99.99,,2013-04-07 02:34:00,
2013-04-06 22:40:00,42.8,32.0,30.24,South,190,5.8,-999.9,66,-99.99,,,-99.99,,2013-04-07 02:40:00,
2013-04-06 22:46:00,42.8,32.0,30.24,North,0,0.0,-999.9,66,-99.99,,,-99.99,,2013-04-07 02:46:00,
2013-04-06 22:54:00,42.8,32.0,30.24,South,188,6.9,-999.9,66,-99.99,,,-99.99,,2013-04-07 02:54:00,
2013-04-06 23:00:00,42.8,32.0,30.24,South,188,6.9,-999.9,66,-99.99,,,-99.99,,2013-04-07 03:00:00,
2013-04-06 23:06:00,42.8,32.0,30.24,SW,216,3.5,-999.9,66,-99.99,,,-99.99,,2013-04-07 03:06:00,
2013-04-06 23:14:00,42.8,32.0,30.24,SSW,195,5.8,-999.9,66,-99.99,,,-99.99,,2013-04-07 03:14:00,
2013-04-06 23:20:00,42.8,32.0,30.24,SSW,195,5.8,-999.9,66,-99.99,,,-99.99,,2013-04-07 03:20:00,
2013-04-06 23:26:00,42.8,32.0,30.24,SSW,196,3.5,-999.9,66,-99.99,,,-99.99,,2013-04-07 03:26:00,
2013-04-06 23:34:00,42.8,32.0,30.24,SSW,200,2.3,-999.9,66,-99.99,,,-99.99,,2013-04-07 03:34:00,
2013-04-06 23:40:00,42.8,32.0,30.24,SSW,200,2.3,-999.9,66,-99.99,,,-99.99,,2013-04-07 03:40:00,
2013-04-06 23:46:00,42.8,32.0,30.24,SSW,205,6.9,-999.9,66,-99.99,,,-99.99,,2013-04-07 03:46:00,
2013-04-06 23:54:00,42.8,32.0,30.24,SSW,193,3.5,-999.9,66,-99.99,,,-99.99,,2013-04-07 03:54:00,